Cloud_Cover
100 100 100 100 100 98 100 100 96 79 14 20 13 12 6 18 5 5 14 10 78 96 100 97 100 100 99
100 100 100 100 99 42 6 12 80 70 96 98 72 83 11 26 49 5 40 64 87 82 91 72 98 99 100
100 100 100 100 100 100 99 44 31 31 58 38 24 15 12 5 11 53 61 100 98 49 5 5 5 5 17
99 99 100 100 100 100 100 100 76 18 16 9 5 5 5 5 5 28 43 16 5 4 1 5 5 5 25
59 18 97 100 100 100 85 90 55 14 22 13 5 5 5 5 5 5 1 0 4 5 5 5 8 73 98
59 22 100 92 97 98 100 99 97 100 100 86 48 5 6 5 5 5 5 5 5 51 30 43 81 97 100
100 70 29 76 71 100 98 91 95 100 100 100 100 100 100 68 44 5 5 5 24 78 99 100 100 100 100
90 100 99 98 97 65 53 41 30 74 99 34 86 96 100 100 100 75 5 5 12 31 20 70 84 100 100
98 78 84 69 96 73 42 6 11 7 35 87 98 100 96 88 14 5 5 8 57 87 97 100 100 100 98
100 100 100 63 96 98 100 100 100 100 100 100 100 100 79 6 8 11 6 9 9 33 97 100 100 100 100
100 100 100 100 56 18 5 5 67 92 42 24 5 42 97 40 54 95 99 66 47 22 79 100 99 100 71
100 90 94 100 100 99 58 33 18 38 93 33 73 91 87 55 5 45 70 30 66 100 100 100 69 38 14
100 100 78 28 86 88 93 73 93 32 5 94 99 52 100 88 5 5 98 100 100 100 24 5 0 0 0
100 100 100 100 70 97 100 99 92 89 86 63 100 100 91 25 98 100 89 96 47 5 3 0 0 0 0
100 86 100 100 100 100 100 100 100 92 62 49 100 100 100 88 100 100 69 5 5 5 5 3 0 0 0
100 100 100 100 100 100 100 100 100 86 35 71 100 100 100 65 95 89 21 5 4 4 5 5 5 0 0
99 100 100 100 100 100 100 100 100 100 100 100 100 100 100 95 24 100 32 5 5 5 5 5 5 0 0